Weather History for Sierra Vista, AZ

Change the Weather History Date:

Sunday, October 5, 2014

  Actual Average Record
Temperature  
Mean Temperature 70 °F -  
Max Temperature 82 °F 81 °F 90 °F (1982)
Min Temperature 57 °F 59 °F 48 °F (1984)
Cooling Degree Days 4    
Growing Degree Days 20 (Base 50)    
Moisture  
Dew Point 47 °F    
Average Humidity 44    
Maximum Humidity 70    
Minimum Humidity 28    
Precipitation  
Precipitation 0.00 in - - ()
Sea Level Pressure  
Sea Level Pressure 29.96 in    
Wind  
Wind Speed 7 mph (West)    
Max Wind Speed 14 mph    
Max Gust Speed 24 mph    
Visibility 10 miles    
Events      
Averages and records for this station are not official NWS values.
T = Trace of Precipitation, MM = Missing Value Source: NWS Daily Summary

Daily Weather History Graph

Daily Weather History Graph

Search for Another Location

Airport:

Trip Planner

Search our weather history database for the weather conditions in past years. The results will help you decide how hot, cold, wet, or windy it might be!

Date:

Astronomy

Oct. 05, 2014 Rise Set
Actual Time 6:17 AM MST 6:01 PM MST
Civil Twilight 5:53 AM MST 6:25 PM MST
Nautical Twilight 5:25 AM MST 6:53 PM MST
Astronomical Twilight 4:57 AM MST 7:21 PM MST
Moon 4:12 PM MST (10/5) 3:09 AM MST (10/5)
Length of Visible Light 12h 32m
Length of Day
11h 43m
Waxing Gibbous, 90% of the Moon is Illuminated
Oct 5
Waxing Gibbous
Oct 8
Full
Oct 15
Last Quarter
Oct 23
New
Oct 30
First Quarter

Hourly Weather History & Observations

Time (MST) Temp. Dew Point Humidity Pressure Visibility Wind Dir Wind Speed Gust Speed Precip Events Conditions
12:56 AM 66.0 °F 45.0 °F 47% 29.97 in 10.0 mi SW 6.9 mph - N/A   Clear
1:56 AM 61.0 °F 46.0 °F 58% 29.97 in 10.0 mi SW 6.9 mph - N/A   Clear
2:56 AM 61.0 °F 46.0 °F 58% 29.96 in 10.0 mi Calm Calm - N/A   Clear
3:56 AM 60.1 °F 46.9 °F 62% 29.96 in 10.0 mi WSW 10.4 mph - N/A   Clear
4:56 AM 57.0 °F 46.9 °F 69% 29.97 in 10.0 mi Calm Calm - N/A   Clear
5:56 AM 57.9 °F 48.0 °F 70% 30.00 in 10.0 mi Calm Calm - N/A   Clear
6:56 AM 62.1 °F 48.0 °F 60% 30.01 in 10.0 mi West 5.8 mph - N/A   Clear
7:56 AM 72.0 °F 48.0 °F 43% 30.01 in 10.0 mi WSW 5.8 mph - N/A   Clear
8:56 AM 75.0 °F 46.0 °F 36% 30.01 in 10.0 mi WNW 5.8 mph - N/A   Clear
9:56 AM 77.0 °F 43.0 °F 30% 30.01 in 10.0 mi Variable 5.8 mph - N/A   Clear
10:56 AM 80.1 °F 46.0 °F 30% 29.99 in 10.0 mi WNW 6.9 mph - N/A   Clear
11:56 AM 80.1 °F 46.9 °F 31% 29.96 in 10.0 mi NW 6.9 mph - N/A   Clear
12:56 PM 82.9 °F 46.9 °F 28% 29.93 in 10.0 mi West 12.7 mph 24.2 mph N/A   Clear
1:56 PM 82.9 °F 48.0 °F 29% 29.92 in 10.0 mi West 10.4 mph 20.7 mph N/A   Clear
2:56 PM 82.0 °F 50.0 °F 33% 29.90 in 10.0 mi WSW 8.1 mph 20.7 mph N/A   Mostly Cloudy
3:56 PM 80.1 °F 51.1 °F 36% 29.91 in 10.0 mi WNW 9.2 mph - N/A   Clear
4:56 PM 78.1 °F 44.1 °F 30% 29.91 in 10.0 mi WNW 10.4 mph - N/A   Clear
5:56 PM 73.9 °F 44.1 °F 34% 29.93 in 10.0 mi West 10.4 mph - N/A   Clear
6:56 PM 73.0 °F 45.0 °F 37% 29.94 in 10.0 mi West 11.5 mph - N/A   Clear
7:56 PM 72.0 °F 46.9 °F 41% 29.94 in 10.0 mi West 13.8 mph - N/A   Clear
8:56 PM 71.1 °F 48.0 °F 44% 29.95 in 10.0 mi West 12.7 mph - N/A   Clear
9:56 PM 69.1 °F 46.9 °F 45% 29.94 in 10.0 mi West 13.8 mph - N/A   Clear
10:56 PM 66.9 °F 46.0 °F 47% 29.95 in 10.0 mi West 11.5 mph - N/A   Clear
11:56 PM 61.0 °F 46.9 °F 60% 29.96 in 10.0 mi West 9.2 mph - N/A   Clear